Home   Weather   Langenhagen   Past weeks

Flag for Germany Past Weather in Langenhagen, Lower Saxony, Germany — Yesterday and Last 2 Weeks

Now
73 °F

Passing clouds.


Feels Like: 77 °F
Forecast: 52 / 63 °F
Wind: 16 mph from Southwest

Location: Hannover

Current Time: Sep 29, 2016 at 2:01:11 PM

Latest Report: Sep 29, 2016 at 1:20 PM


Visibility: N/A

Pressure: 29.89 "Hg

Humidity: 47%

Dew Point: 52 °F

Location of LangenhagenLocation

Past Weather in Langenhagen — Graph

°F

Langenhagen Temperature Yesterday

Maximum temperature yesterday: 68 °F (at 12:50 PM)
Minimum temperature yesterday: 54 °F (at 12:20 AM)
Average temperature yesterday: 64 °F

High & Low Weather Summary for the Past Weeks

 TemperatureHumidityPressure
High86 °F (Sep 14, 2:20 PM)100% (Sep 21, 3:50 AM)30.30 "Hg (Sep 21, 3:50 AM)
Low43 °F (Sep 24, 6:50 AM)31% (Sep 14, 2:50 PM)29.86 "Hg (Sep 15, 5:50 PM)
Average62 °F71%30.10 "Hg
* Reported Sep 14 12:20 PM — Sep 29 12:50 PM, Langenhagen, Weather by CustomWeather, © 2016

Note: Actual official high and low records may vary slightly from our data, if they occured in-between our weather recording intervals... More about our weather records

Advertising

Langenhagen Weather History for the Previous 24 Hours

Scroll right to see more
 ConditionsComfort  
Time TempWeatherWind HumidityBarometerVisibility
12:50 PM
Thu, Sep 29
70 °FPassing clouds.17 mph53%29.92 "HgN/A
12:20 PM72 °FPassing clouds.16 mph53%29.92 "HgN/A
11:50 AM70 °FPassing clouds.18 mph57%29.95 "HgN/A
11:20 AM68 °FPassing clouds.15 mph60%29.95 "HgN/A
10:50 AM68 °FPassing clouds.17 mph56%29.98 "HgN/A
10:20 AM68 °FPassing clouds.16 mph56%29.98 "HgN/A
9:50 AM68 °FPassing clouds.15 mph56%29.98 "HgN/A
9:20 AM68 °FPassing clouds.15 mph56%30.01 "HgN/A
8:50 AM66 °FPassing clouds.12 mph56%30.01 "HgN/A
8:20 AM66 °FSunny.14 mph60%30.01 "Hg10 mi
7:50 AM66 °FPartly sunny.12 mph56%30.01 "HgN/A
7:20 AM66 °FScattered clouds.10 mph56%30.04 "HgN/A
6:50 AM66 °FPassing clouds.12 mph56%30.04 "HgN/A
6:20 AM66 °FPassing clouds.13 mph56%30.04 "HgN/A
5:50 AM66 °FPassing clouds.10 mph60%30.04 "HgN/A
5:20 AM64 °FPassing clouds.9 mph68%30.04 "HgN/A
4:50 AM66 °FPassing clouds.9 mph64%30.07 "HgN/A
4:20 AM66 °FPartly cloudy.9 mph64%30.07 "HgN/A
3:50 AM66 °FPassing clouds.10 mph64%30.07 "HgN/A
3:20 AM66 °FPassing clouds.9 mph64%30.09 "HgN/A
2:50 AM66 °FPassing clouds.10 mph64%30.09 "HgN/A
2:20 AM66 °FPassing clouds.9 mph60%30.09 "HgN/A
1:50 AM66 °FPartly cloudy.12 mph60%30.12 "HgN/A
1:20 AM66 °FPassing clouds.12 mph56%30.12 "HgN/A
12:50 AM64 °FClear.10 mph64%30.12 "Hg10 mi
12:20 AM66 °FClear.10 mph60%30.12 "Hg10 mi
11:50 PM
Wed, Sep 28
66 °FPassing clouds.12 mph60%30.12 "HgN/A
11:20 PM66 °FPassing clouds.10 mph60%30.12 "HgN/A
10:50 PM66 °FPassing clouds.10 mph60%30.15 "HgN/A
10:20 PM66 °FPassing clouds.12 mph60%30.12 "HgN/A
9:50 PM68 °FPassing clouds.12 mph56%30.15 "HgN/A
9:20 PM68 °FPassing clouds.12 mph56%30.15 "HgN/A
8:50 PM68 °FPassing clouds.13 mph56%30.15 "HgN/A
8:20 PM68 °FPassing clouds.13 mph56%30.15 "HgN/A
7:50 PM68 °FPassing clouds.13 mph56%30.15 "HgN/A
7:20 PM68 °FPassing clouds.14 mph56%30.12 "HgN/A
6:50 PM68 °FPassing clouds.13 mph56%30.15 "HgN/A
6:20 PM68 °FPassing clouds.14 mph56%30.15 "HgN/A
5:50 PM68 °FPassing clouds.14 mph60%30.15 "HgN/A
5:20 PM68 °FPartly sunny.15 mph60%30.12 "HgN/A
4:50 PM68 °FPartly sunny.16 mph60%30.12 "HgN/A
4:20 PM68 °FPassing clouds.17 mph60%30.12 "HgN/A
3:50 PM68 °FPassing clouds.16 mph56%30.15 "HgN/A
3:20 PM68 °FPassing clouds.13 mph56%30.15 "HgN/A
2:50 PM68 °FPassing clouds.16 mph56%30.15 "HgN/A
2:20 PM68 °FPartly sunny.16 mph56%30.15 "HgN/A
Weather by CustomWeather, © 2016

See weather overviewHow to use our weather pages